User: anonymous   Login
Location: Charleston
(38.3500°N, 81.6330°W)
Time: 14:45:05
(UTC-04:00)
Language:

Cosmos 1812 Rocket - Orbit

View from above orbital plane
View from above orbital plane
View from above satellite
View from above satellite

Ground track
Ground track

The orbit data is extracted from the following two-line orbital elements,

1 17296U 87003B   16126.87100321  .00000159  00000-0  16535-4 0  9990
2 17296  82.5323  45.7392 0020439 121.1186 239.2038 14.83114377582740
Epoch (UTC): 05 May 2016 20:54:14
Eccentricity: 0.0020439
inclination: 82.5323°
perigee height: 605 km
apogee height: 634 km
right ascension of ascending node: 45.7392°
argument of perigee: 121.1186°
revolutions per day: 14.83114377
mean anomaly at epoch: 239.2038°
orbit number at epoch: 58274

The dashed part of the orbit path shows where the satellite is in the earth's shadow,  

DLR